Flag for Uruguay Weather past 2 weeks in Rivera, Uruguay

Now
63 °F

Thunderstorms. Mostly cloudy.


Feels Like: 63 °F
Forecast: 48 / 62 °F
Wind: 16 mph from Southwest

Location: Paso De Los Libres Aerodrome

Current Time: Jul 23, 2014 at 4:48:59 AM

Latest Report: Jul 23, 2014 at 3:00 AM


Visibility: 4 mi

Pressure: 29.77 "Hg

Humidity: 100%

Dew point: 63 °F

Location of RiveraLocation

Historic Weather in Rivera — Graph

°F

Rivera temperature yesterday

Maximum temperature yesterday: 68 °F (at 12:00 PM)
Minimum temperature yesterday: 59 °F (at 12:00 AM)
Average temperature yesterday: 61 °F

Past Weeks' High & Low Weather Summary

 TemperatureHumidityPressure
High81 °F (Jul 16, 3:00 PM)100% (Jul 8, 4:00 AM)30.39 "Hg (Jul 8, 4:00 AM)
Low43 °F (Jul 8, 3:00 AM)46% (Jul 19, 2:00 PM)29.74 "Hg (Jul 22, 9:00 PM)
Average61 °F83%30.09 "Hg
* Reported Jul 8 3:00 AM — Jul 23 3:00 AM, Rivera, Weather by CustomWeather, © 2014

Note: Actual official high and low records may vary slightly from our data, if they occured in-between our weather recording intervals... More about our weather records

Advertising

Rivera weather history for previous 24 hours

 ConditionsComfort  
Time TempWeatherWind HumidityBarometerVisibility
3:00 AM
Jul 23
63 °FThunderstorms. Mostly cloudy.16 mph100%29.77 "Hg4 mi
2:00 AM63 °FThunderstorms. Mostly cloudy.13 mph100%29.77 "Hg4 mi
1:00 AM63 °FThunderstorms. Mostly cloudy.9 mph100%29.77 "Hg5 mi
12:00 AM63 °FThunderstorms. Mostly cloudy.10 mph100%29.74 "Hg4 mi
11:00 PM
Jul 22
63 °FThunderstorms. Mostly cloudy.9 mph100%29.77 "Hg5 mi
10:00 PM64 °FThunderstorms. Mostly cloudy.6 mph94%29.77 "HgN/A
9:00 PM64 °FThunderstorms. Mostly cloudy.3 mph94%29.74 "HgN/A
1:00 PM64 °FMostly cloudy.6 mph94%29.77 "HgN/A
12:00 PM68 °FThunderstorms. Broken clouds.9 mph78%29.77 "HgN/A
11:00 AM64 °FBroken clouds.12 mph78%29.80 "HgN/A
10:00 AM63 °FBroken clouds.12 mph77%29.80 "HgN/A
9:00 AM61 °FBroken clouds.7 mph88%29.80 "HgN/A
8:00 AM59 °FThunderstorms. Mostly cloudy.7 mph94%29.80 "Hg3 mi
7:00 AM59 °FThunderstorms. Mostly cloudy.10 mph88%29.80 "HgN/A
6:00 AM59 °FMostly cloudy.8 mph88%29.80 "HgN/A
5:00 AM59 °FThunderstorms. Mostly cloudy.12 mph88%29.83 "Hg5 mi
4:00 AM59 °FThunderstorms. Mostly cloudy.3 mph82%29.86 "HgN/A
Weather by CustomWeather, © 2014

See weather overviewHow to use our weather pages